Flag for India Weather past 2 weeks in Kapurthala, Punjab, India

Now
95 °F

Scattered clouds.


Feels Like: 103 °F
Forecast: 83 / 103 °F
Wind: 5 mph from Northeast

Location: Amritsar Airport

Current Time: Jul 1, 2015 at 6:18:43 PM

Latest Report: Jul 1, 2015 at 5:30 PM


Visibility: 3 mi

Pressure: 29.56 "Hg

Humidity: 47%

Dew point: 72 °F

Location of KapurthalaLocation

Historic Weather in Kapurthala — Graph

°F

Kapurthala temperature yesterday

Maximum temperature yesterday: 91 °F (at 3:00 PM)
Minimum temperature yesterday: 75 °F (at 12:00 AM)
Average temperature yesterday: 83 °F

Past Weeks' High & Low Weather Summary

 TemperatureHumidityPressure
High109 °F (Jun 19, 4:00 PM)100% (Jun 24, 4:00 AM)29.71 "Hg (Jun 24, 4:00 AM)
Low73 °F (Jun 21, 1:30 AM)25% (Jun 19, 1:30 PM)29.36 "Hg (Jun 22, 5:30 PM)
Average89 °F59%29.51 "Hg
* Reported Jun 16 4:30 PM — Jul 1 4:30 PM, Kapurthala, Weather by CustomWeather, © 2015

Note: Actual official high and low records may vary slightly from our data, if they occured in-between our weather recording intervals... More about our weather records

Advertising

Kapurthala weather history for previous 24 hours

 ConditionsComfort  
Time TempWeatherWind HumidityBarometerVisibility
4:30 PM
Wed, Jul 1
95 °FScattered clouds.5 mph47%29.59 "Hg3 mi
4:00 PM95 °FScattered clouds.5 mph50%29.59 "Hg3 mi
3:30 PM95 °FScattered clouds.5 mph50%29.59 "Hg3 mi
3:00 PM95 °FScattered clouds.5 mph50%29.62 "Hg3 mi
2:30 PM95 °FScattered clouds.3 mph53%29.62 "Hg3 mi
2:00 PM93 °FScattered clouds.3 mph53%29.62 "Hg3 mi
1:30 PM93 °FScattered clouds.6 mph53%29.65 "Hg3 mi
1:00 PM93 °FScattered clouds.5 mph53%29.65 "Hg2 mi
12:30 PM93 °FScattered clouds.3 mph56%29.65 "Hg2 mi
12:00 PM91 °FScattered clouds.5 mph59%29.68 "Hg2 mi
11:30 AM90 °FScattered clouds.6 mph63%29.68 "Hg2 mi
11:00 AM90 °FScattered clouds.6 mph63%29.65 "Hg2 mi
10:30 AM90 °FScattered clouds.6 mph67%29.65 "Hg2 mi
10:00 AM88 °FScattered clouds.3 mph66%29.65 "Hg2 mi
9:30 AM90 °FScattered clouds.3 mph63%29.65 "Hg2 mi
8:30 AM88 °FScattered clouds.2 mph66%29.65 "Hg2 mi
8:00 AM86 °FFog.1 mph75%29.65 "Hg2 mi
7:30 AM84 °FFog.No wind79%29.65 "Hg2 mi
7:00 AM82 °FFog.No wind84%29.62 "Hg2 mi
6:30 AM81 °FFog.No wind89%29.62 "Hg1 mi
6:00 AM81 °FFog.No wind89%29.62 "Hg1 mi
5:30 AM81 °FFog.No wind94%29.62 "Hg2 mi
5:00 AM81 °FFog.No wind94%29.62 "Hg2 mi
4:30 AM81 °FFog.No wind94%29.62 "Hg2 mi
4:00 AM81 °FFog.No wind89%29.62 "Hg2 mi
3:30 AM81 °FFog.No wind94%29.62 "Hg2 mi
3:00 AM81 °FFog.No wind94%29.62 "Hg2 mi
2:30 AM81 °FFog.No wind94%29.62 "Hg2 mi
2:00 AM81 °FFog.No wind94%29.62 "Hg2 mi
1:30 AM82 °FFog.No wind84%29.65 "Hg2 mi
1:00 AM82 °FFog.No wind89%29.65 "Hg2 mi
12:30 AM82 °FFog.No wind84%29.65 "Hg2 mi
12:00 AM82 °FFog.No wind84%29.65 "Hg2 mi
11:30 PM
Tue, Jun 30
84 °FFog.No wind79%29.65 "Hg2 mi
10:30 PM84 °FPassing clouds.No wind79%29.65 "Hg2 mi
10:00 PM84 °FPassing clouds.No wind74%29.65 "Hg2 mi
9:30 PM86 °FPassing clouds.No wind70%29.65 "Hg2 mi
8:30 PM86 °FPassing clouds.No wind70%29.62 "Hg2 mi
8:00 PM88 °FScattered clouds.No wind66%29.62 "Hg2 mi
7:00 PM88 °FScattered clouds.1 mph62%29.62 "Hg3 mi
6:00 PM90 °FScattered clouds.6 mph59%29.62 "Hg3 mi
Weather by CustomWeather, © 2015

See weather overviewHow to use our weather pages